Regional Weather Roundup
Issued by NWS

Home | Current Version | Previous Version | Graphics & Text | Print | Product List | Glossary On
Versions: 1 2 3 4 5 6 7 8 9 10 11 12 13 14 15 16 17 18 19 20 21 22 23 24 25 26 27 28 29 30 31 32 33 34 35 36 37 38 39 40 41 42 43 44 45 46 47 48 49 50
000
ASUS43 KLMK 280102
RWRKY
KENTUCKY REGIONAL WEATHER ROUNDUP
NATIONAL WEATHER SERVICE LOUISVILLE KY
900 PM EDT TUE JUN 27 2017

NOTE "FAIR" INDICATES FEW OR NO CLOUDS BELOW 12,000 FEET
WITH NO SIGNIFICANT WEATHER AND/OR OBSTRUCTIONS TO VISIBILITY.

KYZ001>023-026-027-061>063-070>075-280200-
WESTERN AND SOUTH CENTRAL KENTUCKY

CITY           SKY/WX    TMP DP  RH WIND       PRES   REMARKS
PADUCAH        CLEAR     75  56  51 CALM      30.05R
HENDERSON      CLEAR     73  54  51 CALM      30.07S
OWENSBORO      CLEAR     76  50  40 N3        30.08R
HOPKINSVILLE   CLEAR     73  58  59 NE5       30.06R
BOWLING GREEN  CLEAR     75  52  44 CALM      30.08R
GLASGOW        NOT AVBL
$$

KYZ024-025-028>034-038-045-046-053-280200-
NORTH CENTRAL KENTUCKY

CITY           SKY/WX    TMP DP  RH WIND       PRES   REMARKS
LOUISVILLE/SDF PTCLDY    73  46  38 N7        30.07S
LOUISVILLE/LOU CLEAR     75  47  36 NE5       30.09R
FORT KNOX      CLEAR     67  53  60 CALM      30.07S
$$

KYZ035>037-039>044-047>052-055>060-089>105-280200-
NORTHEAST KENTUCKY

CITY           SKY/WX    TMP DP  RH WIND       PRES   REMARKS
LEXINGTON      CLEAR     71  44  37 CALM      30.10F
COVINGTON      PTCLDY    68  49  50 W3        30.10S
FRANKFORT      CLEAR     69  50  50 CALM      30.09S
$$

KYZ054-064>069-076>088-106>120-280200-
SOUTHEAST KENTUCKY

CITY           SKY/WX    TMP DP  RH WIND       PRES   REMARKS
JACKSON        CLEAR     66  48  52 CALM      30.12R
LONDON         CLEAR     69  49  48 NE5       30.10S
SOMERSET       NOT AVBL
MIDDLESBORO    NOT AVBL
MONTICELLO     CLEAR     65  54  67 N12       30.11S
$$





USA.gov is the U.S. government's official web portal to all federal, state and local government web resources and services.